Terminal Aerodrome Forecast
Issued by NWS

Home | Current Version | Previous Version | Graphics & Text | Print | Product List | Glossary On
Versions: 1 2 3 4 5 6 7 8 9 10 11 12 13 14 15 16 17 18 19 20 21 22
000
FTUS43 KICT 301200 AAA
TAFHUT
TAF AMD
KHUT 301231Z 3013/3112 VRB05KT P6SM FEW250
     FM301800 12007KT P6SM FEW250
     FM310000 18010KT P6SM SKC=

USA.gov is the U.S. government's official web portal to all federal, state and local government web resources and services.